Weather History for KMGG - November, 2012

Change the Weather History Date:

Saturday, November 3, 2012

  Actual Average (KSTC) Record (KSTC)
Temperature  
Mean Temperature 35 °F 38 °F  
Max Temperature 39 °F 47 °F 74 °F (1978)
Min Temperature 31 °F 28 °F 0 °F (1991)
Degree Days  
Heating Degree Days 30 27  
Month to date heating degree days 80  
Since 1 July heating degree days 965  
Cooling Degree Days 0 0  
Month to date cooling degree days 0  
Year to date cooling degree days 465  
Moisture  
Dew Point 29 °F    
Average Humidity 79    
Maximum Humidity 96    
Minimum Humidity 67    
Precipitation  
Precipitation 0.00 in 0.05 in 0.48 in (1938)
Month to date precipitation 0.15  
Year to date precipitation 25.68  
Snow  
Snow 0.00 in 0.10 in 2.50 in (1970)
Month to date snowfall 0.4  
Since 1 July snowfall 1.2  
Since 1 September snowfall 1.2  
Snow Depth -    
Sea Level Pressure  
Sea Level Pressure 30.20 in    
Wind  
Wind Speed 1 mph (ENE)    
Max Wind Speed 8 mph    
Max Gust Speed -    
Visibility 10 miles    
Events Snow    
T = Trace of Precipitation, MM = Missing Value Source: NWS Daily Summary

Daily Weather History Graph

Daily Weather History Graph

Search for Another Location

Airport or City:

Trip Planner

Search our weather history database for the weather conditions in past years. The results will help you decide how hot, cold, wet, or windy it might be!

Date:

Astronomy

Nov. 03, 2012 Rise Set
Actual Time 7:58 AM CDT 6:00 PM CDT
Civil Twilight 7:27 AM CDT 6:30 PM CDT
Nautical Twilight 6:52 AM CDT 7:05 PM CDT
Astronomical Twilight 6:18 AM CDT 7:40 PM CDT
Moon 9:37 PM CDT (11/3) 12:07 PM CDT (11/3)
Length of Visible Light 11h 03m
Length of Day
10h 01m
Waning Gibbous, 80% of the Moon is Illuminated
Nov 3
Waning Gibbous
Nov 6
Last Quarter
Nov 13
New
Nov 20
First Quarter
Nov 28
Full

Hourly Weather History & Observations

Time (CDT) Temp. Windchill Dew Point Humidity Pressure Visibility Wind Dir Wind Speed Gust Speed Precip Events Conditions
12:15 AM 34.2 °F - 27.1 °F 75% 30.17 in 10.0 mi Calm Calm - N/A   Overcast
12:34 AM 34.2 °F - 27.5 °F 77% 30.18 in 10.0 mi Calm Calm - N/A   Overcast
12:54 AM 34.7 °F - 26.6 °F 72% 30.17 in 10.0 mi Calm Calm - N/A   Overcast
1:15 AM 34.9 °F - 26.8 °F 72% 30.17 in 10.0 mi Calm Calm - N/A   Overcast
1:34 AM 34.5 °F - 26.6 °F 73% 30.17 in 10.0 mi Calm Calm - N/A   Overcast
1:54 AM 34.3 °F - 26.6 °F 73% 30.17 in 10.0 mi Calm Calm - N/A   Overcast
2:14 AM 34.2 °F - 26.8 °F 74% 30.17 in 10.0 mi Calm Calm - N/A   Overcast
2:35 AM 33.8 °F - 27.0 °F 76% 30.17 in 10.0 mi Calm Calm - N/A   Overcast
2:54 AM 34.2 °F - 26.6 °F 74% 30.17 in 10.0 mi Calm Calm - N/A   Overcast
3:14 AM 34.2 °F - 26.2 °F 73% 30.16 in 10.0 mi Calm Calm - N/A   Overcast
3:34 AM 33.8 °F - 26.8 °F 75% 30.16 in 10.0 mi Calm Calm - N/A   Overcast
3:55 AM 34.2 °F - 26.4 °F 73% 30.16 in 10.0 mi Calm Calm - N/A   Overcast
4:15 AM 34.0 °F - 26.6 °F 74% 30.17 in 10.0 mi Calm Calm - N/A   Overcast
4:54 AM 34.3 °F - 26.8 °F 74% 30.17 in 10.0 mi Calm Calm - N/A   Overcast
5:15 AM 34.3 °F - 27.0 °F 74% 30.18 in 10.0 mi Calm Calm - N/A   Overcast
5:35 AM 34.2 °F - 26.6 °F 74% 30.18 in 10.0 mi Calm Calm - N/A   Overcast
5:54 AM 33.8 °F - 27.3 °F 77% 30.18 in 10.0 mi Calm Calm - N/A   Overcast
6:14 AM 33.8 °F - 27.7 °F 78% 30.19 in 10.0 mi Calm Calm - N/A   Overcast
6:34 AM 34.0 °F - 27.1 °F 76% 30.19 in 10.0 mi Calm Calm - N/A   Overcast
6:54 AM 34.0 °F - 27.1 °F 76% 30.19 in 10.0 mi Calm Calm - N/A   Overcast
7:14 AM 33.8 °F - 27.1 °F 77% 30.19 in 10.0 mi Calm Calm - N/A   Overcast
7:35 AM 34.0 °F - 27.0 °F 75% 30.19 in 10.0 mi Calm Calm - N/A   Overcast
7:54 AM 33.6 °F 29.4 °F 27.7 °F 79% 30.20 in 10.0 mi North 4.6 mph - N/A   Overcast
8:14 AM 33.8 °F 30.8 °F 27.0 °F 76% 30.20 in 10.0 mi NNE 3.5 mph - N/A   Overcast
8:34 AM 32.5 °F 29.3 °F 28.4 °F 85% 30.21 in 4.0 mi North 3.5 mph - N/A Snow Light Snow
8:54 AM 31.6 °F 27.0 °F 30.2 °F 94% 30.21 in 2.0 mi NE 4.6 mph - N/A Snow Light Snow
9:14 AM 31.8 °F 25.4 °F 30.7 °F 96% 30.21 in 7.0 mi ENE 6.9 mph - N/A Snow Light Snow
9:34 AM 32.0 °F 28.7 °F 30.7 °F 95% 30.22 in 10.0 mi ENE 3.5 mph - N/A   Overcast
9:55 AM 32.2 °F 28.9 °F 30.2 °F 92% 30.22 in 10.0 mi East 3.5 mph - N/A   Overcast
10:14 AM 32.7 °F 25.7 °F 30.6 °F 92% 30.22 in 10.0 mi East 8.1 mph - N/A   Overcast
10:34 AM 33.3 °F 26.4 °F 30.9 °F 91% 30.22 in 10.0 mi East 8.1 mph - N/A   Overcast
10:55 AM 33.8 °F 30.8 °F 31.1 °F 90% 30.22 in 10.0 mi East 3.5 mph - N/A   Overcast
11:14 AM 34.2 °F 29.0 °F 30.7 °F 87% 30.22 in 10.0 mi East 5.8 mph - N/A   Overcast
11:34 AM 34.7 °F 31.8 °F 30.4 °F 84% 30.22 in 10.0 mi East 3.5 mph - N/A   Overcast
11:54 AM 35.1 °F - 30.6 °F 84% 30.22 in 10.0 mi Calm Calm - N/A   Overcast
12:14 PM 35.6 °F 32.8 °F 30.2 °F 81% 30.22 in 10.0 mi East 3.5 mph - N/A   Overcast
12:35 PM 36.3 °F 32.5 °F 30.6 °F 80% 30.22 in 10.0 mi East 4.6 mph - N/A   Overcast
12:54 PM 36.5 °F 33.9 °F 29.7 °F 76% 30.22 in 10.0 mi ENE 3.5 mph - N/A   Overcast
1:14 PM 36.5 °F - 29.7 °F 76% 30.22 in 10.0 mi Calm Calm - N/A   Overcast
1:35 PM 37.0 °F - 29.5 °F 74% 30.22 in 10.0 mi Calm Calm - N/A   Overcast
1:54 PM 37.4 °F - 29.8 °F 74% 30.22 in 10.0 mi Calm Calm - N/A   Overcast
2:15 PM 37.8 °F 35.3 °F 30.7 °F 76% 30.21 in 10.0 mi East 3.5 mph - N/A   Overcast
2:34 PM 38.3 °F 35.9 °F 30.4 °F 73% 30.21 in 10.0 mi East 3.5 mph - N/A   Overcast
2:54 PM 39.0 °F - 29.8 °F 70% 30.21 in 10.0 mi Calm Calm - N/A   Overcast
3:14 PM 38.8 °F - 29.3 °F 69% 30.21 in 10.0 mi Calm Calm - N/A   Overcast
3:35 PM 39.2 °F - 29.1 °F 67% 30.20 in 10.0 mi Calm Calm - N/A   Overcast
3:54 PM 38.8 °F - 29.7 °F 70% 30.20 in 10.0 mi Calm Calm - N/A   Overcast
4:14 PM 39.2 °F - 29.5 °F 68% 30.20 in 10.0 mi Calm Calm - N/A   Overcast
4:35 PM 39.2 °F - 29.5 °F 68% 30.20 in 10.0 mi Calm Calm - N/A   Overcast
4:55 PM 39.0 °F - 29.1 °F 68% 30.20 in 10.0 mi Calm Calm - N/A   Overcast
5:14 PM 39.2 °F - 29.3 °F 68% 30.20 in 10.0 mi Calm Calm - N/A   Overcast
5:34 PM 38.8 °F - 29.3 °F 69% 30.20 in 10.0 mi Calm Calm - N/A   Overcast
5:54 PM 38.3 °F 34.8 °F 32.5 °F 80% 30.20 in 10.0 mi NNE 4.6 mph - N/A   Overcast
6:14 PM 37.4 °F 33.8 °F 32.9 °F 84% 30.20 in 10.0 mi NE 4.6 mph - N/A   Overcast
6:34 PM 37.0 °F 34.5 °F 32.5 °F 84% 30.20 in 10.0 mi NE 3.5 mph - N/A   Overcast
6:54 PM 36.9 °F - 32.0 °F 83% 30.21 in 10.0 mi Calm Calm - N/A   Overcast
7:14 PM 36.7 °F - 32.2 °F 84% 30.21 in 10.0 mi Calm Calm - N/A   Overcast
7:35 PM 36.5 °F - 32.0 °F 84% 30.21 in 10.0 mi Calm Calm - N/A   Overcast
7:54 PM 36.5 °F - 32.0 °F 84% 30.22 in 10.0 mi Calm Calm - N/A   Overcast
8:14 PM 36.5 °F - 32.0 °F 84% 30.22 in 10.0 mi Calm Calm - N/A   Overcast
8:34 PM 36.5 °F 33.9 °F 31.6 °F 83% 30.21 in 10.0 mi NE 3.5 mph - N/A   Overcast
8:55 PM 36.5 °F 33.9 °F 31.5 °F 82% 30.21 in 10.0 mi NE 3.5 mph - N/A   Overcast
9:14 PM 36.5 °F - 31.3 °F 81% 30.21 in 10.0 mi Calm Calm - N/A   Overcast
9:34 PM 36.5 °F 33.9 °F 31.5 °F 82% 30.22 in 10.0 mi NE 3.5 mph - N/A   Overcast
9:54 PM 36.5 °F - 31.5 °F 82% 30.22 in 10.0 mi Calm Calm - N/A   Overcast
10:14 PM 36.5 °F - 31.5 °F 82% 30.22 in 10.0 mi Calm Calm - N/A   Overcast
10:34 PM 36.5 °F - 30.9 °F 80% 30.22 in 10.0 mi Calm Calm - N/A   Overcast
10:54 PM 36.5 °F - 30.7 °F 80% 30.22 in 10.0 mi Calm Calm - N/A   Overcast
11:14 PM 36.3 °F - 30.7 °F 80% 30.22 in 10.0 mi Calm Calm - N/A   Overcast
11:35 PM 36.5 °F 33.9 °F 30.6 °F 79% 30.23 in 10.0 mi ENE 3.5 mph - N/A   Overcast
11:55 PM 36.1 °F - 31.1 °F 82% 30.23 in 10.0 mi Calm Calm - N/A   Overcast